Regional Weather Roundup
Issued by NWS

Home | Current Version | Previous Version | Graphics & Text | Print | Product List | Glossary Off
Versions: 1 2 3 4 5 6 7 8 9 10 11 12 13 14 15 16 17 18 19 20 21 22 23 24 25 26 27 28 29 30 31 32 33 34 35 36 37 38 39 40 41 42 43 44 45 46 47 48 49 50

000
ASUS43 KMPX 060310
RWRMN
WEATHER ROUNDUP FOR MINNESOTA
NATIONAL WEATHER SERVICE TWIN CITIES/CHANHASSEN MN
900 PM CST THU MAR 05 2015


NOTE: "FAIR" INDICATES FEW OR NO CLOUDS BELOW 12,000 FEET WITH NO
SIGNIFICANT WEATHER AND/OR OBSTRUCTIONS TO VISIBILITY. N/A MEANS
CURRENT SKY AND/OR WEATHER CONDITIONS ARE NOT AVAILABLE.

MNZ060>063-068>070-060400-
   Twin Cities Metro

CITY           SKY/WX    TMP DP  RH WIND       PRES   REMARKS
TWIN CITIES    PTCLDY    11   1  64 S10       30.36F WCI  -3
ST PAUL        PTCLDY    10   2  69 SE10      30.38F WCI  -4
CRYSTAL        PTCLDY    12   1  61 S8        30.33F WCI   0
BLAINE         CLEAR     10   3  72 S8        30.33F WCI  -1
LAKEVILLE      CLEAR      7   0  72 S7        30.36F WCI  -5
EDEN PRAIRIE   PTCLDY     9   0  67 S9        30.34F WCI  -4
SOUTH ST PAUL  PTCLDY    10   1  67 S5        30.37F WCI   2
LAKE ELMO      FAIR       9   1  72 S9        30.37F WCI  -5
$$
MNZ001>005-007-008-013>017-022>024-027-028-060400-
   Northwest Minnesota

CITY           SKY/WX    TMP DP  RH WIND       PRES   REMARKS
BEMIDJI        CLEAR     10   0  63 S9        30.10F WCI  -3
HALLOCK        CLOUDY    18  10  73 S22       29.98F WCI   0
ROSEAU         PTCLDY    14   7  73 S23G29    29.99F WCI  -5
WARROAD        PTCLDY    14   7  73 S15G23    29.99F WCI  -1
THIEF RVR FALL CLEAR     14   7  73 S16       30.06F WCI  -2
CROOKSTON      CLEAR     16   9  73 S21       30.09F WCI  -2
FOSSTON        CLEAR     10   3  72 S20       30.09F WCI  -8
DETROIT LAKES  PTCLDY    12   5  73 S10       30.13F WCI  -1
MOORHEAD       CLEAR     16  10  79 S16       30.14F WCI   0
PARK RAPIDS    CLEAR      9  -2  61 S8        30.14F WCI  -3
MAHNOMEN       FAIR      12   4  71 S13       30.10F WCI  -3
$$
MNZ006-009>011-018-025>026-060400-
   North Central Minnesota

CITY           SKY/WX    TMP DP  RH WIND       PRES   REMARKS
BAUDETTE       CLEAR     13   0  56 S16       30.01F WCI  -3
FLAG ISLAND    MOCLDY    12   5  73 S16       29.96F WCI  -4
INTL FALLS     CLEAR     12  -4  48 SW14G24   30.07F WCI  -3
WASKISH        FAIR      12   0  57 S8        30.08F WCI   1
BIG FORK       CLEAR      9  -4  56 S14       30.12F WCI  -8
LONGVILLE      CLEAR      7  -2  66 S6        30.17F WCI  -3
GRAND RAPIDS   CLEAR      7  -4  61 S13       30.15F WCI  -9
CRANE LAKE     CLEAR      9  -9  43 S7        30.14F WCI  -3
ORR            CLEAR      9  -9  43 S7        30.10F WCI  -3
COOK           CLEAR      9  -6  52 S8        30.15F WCI  -4
WALKER         FAIR       9  -2  59 S6        30.13F WCI   0
$$
MNZ012-019>021-037-060400-
   Northeast Minnesota

CITY           SKY/WX    TMP DP  RH WIND       PRES   REMARKS
DULUTH         CLEAR      7  -6  55 SW13      30.21F WCI  -9
ELY            CLEAR      7  -8  51 SW12G18   30.15F WCI  -9
HIBBING        CLEAR      5  -7  57 S5        30.17F WCI  -4
EVELETH        CLEAR      7  -4  61 SW10G16   30.19F WCI  -8
DULUTH HARBOR  CLEAR      9  -4  56 SW10      30.31S WCI  -6
TWO HARBORS    CLEAR      9  -4  56 SW8       30.22F WCI  -4
SILVER BAY     CLEAR      9  -6  52 SW3       30.21S
GRAND MARAIS     N/A     14  -5  42 W14G23    30.22F WCI  -1
G MARAIS ARPRT PTCLDY     3 -13  47 SW7       30.12F WCI  -9
$$
MNZ029>031-032-039>041-046>048-054>057-064-060400-
   West Central Minnesota

CITY           SKY/WX    TMP DP  RH WIND       PRES   REMARKS
FERGUS FALLS   CLEAR     12   3  67 S15       30.20F WCI  -4
WHEATON        CLEAR     12   7  79 SE17      30.18F WCI  -5
MORRIS         CLEAR     10   5  79 SE12      30.19F WCI  -4
ALEXANDRIA     PTCLDY    12   3  67 S14       30.18F WCI  -3
ELBOW LAKE     FAIR      13   6  72 S17       30.16F WCI  -3
WADENA         PTCLDY     7   0  72 S8        30.16F WCI  -6
GLENWOOD       FAIR       9   3  78 S7        30.21F WCI  -3
APPLETON       CLEAR     16   7  67 SE8       30.21F WCI   5
BENSON         PTCLDY    14   5  67 S10       30.21F WCI   1
ORTONVILLE     CLEAR     12   7  79 SE10      30.18F WCI  -1
MADISON        CLEAR     16   9  73 SE12      30.20F WCI   3
WILLMAR        FAIR      12   3  67 SE9       30.26F WCI   0
$$
MNZ033>034-036-042>043-049>051-058-059-060400-
   Central Minnesota

CITY           SKY/WX    TMP DP  RH WIND       PRES   REMARKS
ST CLOUD       PTCLDY     5  -2  72 SE9       30.28F WCI  -9
SAUK CENTRE    FAIR       7   1  75 SE8       30.22F WCI  -6
PAYNESVILLE    PTCLDY     9   2  73 E8        30.25F WCI  -3
AITKIN         CLEAR      9   0  66 S8        30.20F WCI  -4
PINE RIVER     CLEAR      3  -2  78 S6        30.21F WCI  -8
BRAINERD       CLEAR      6  -2  69 S9        30.21F WCI  -8
STAPLES        PTCLDY     7   0  72 S9        30.19F WCI  -7
LONG PRAIRIE   FAIR       5   0  78 SE8       30.21F WCI  -8
LITTLE FALLS   PTCLDY     9   0  66 SE7       30.25F WCI  -3
LITCHFIELD     CLEAR     10   3  72 CALM      30.28F
BUFFALO        PTCLDY    10   2  68 SE6       30.32F WCI   1
MAPLE LAKE     PTCLDY     9   3  78 S5        30.31F WCI   0
$$
MNZ037-044-045-052-053-060400-
   East Central Minnesota

CITY           SKY/WX    TMP DP  RH WIND       PRES   REMARKS
PRINCETON      PTCLDY     7   0  72 SE5       30.29F WCI  -2
MORA           PTCLDY     7   0  72 S5        30.31F WCI  -2
CAMBRIDGE      PTCLDY     7  -2  66 SE5       30.30F WCI  -2
RUSH CITY      PTCLDY     3  -5  69 S5        30.33F WCI  -6
MOOSE LAKE     CLEAR      5  -4  66 CALM      30.25F
HINCKLEY       FAIR       3  -4  72 S3        30.30F
CLOQUET        CLEAR      7  -6  56 SW10      30.23F WCI  -8
MCGREGOR       CLEAR      7   0  72 S7        30.23F WCI  -5
$$
MNZ071>073-080-081-089-090-097-098-060400-
   Southwest Minnesota

CITY           SKY/WX    TMP DP  RH WIND       PRES   REMARKS
MONTEVIDEO     PTCLDY    16   7  67 S9        30.24F WCI   4
GRANITE FALLS  CLEAR     15   7  68 SE13      30.25F WCI   2
CANBY          PTCLDY    14   6  72 SE7       30.20F WCI   4
MARSHALL       CLEAR     18   5  57 S15       30.23F WCI   3
REDWOOD FALLS  CLEAR     14   5  67 S15       30.27F WCI  -1
OLIVIA         CLEAR     14   7  73 SE10      30.27F WCI   1
PIPESTONE      CLEAR     19   7  58 S15       30.20F WCI   5
WINDOM         CLEAR     16   7  67 S14       30.26F WCI   1
WORTHINGTON    CLEAR     16   5  62 S20       30.26F WCI  -1
JACKSON        CLEAR     18   5  57 S14       30.28F WCI   4
TRACY          CLEAR     19   8  61 S18G26    30.22F WCI   3
SLAYTON        CLEAR     13   5  70 S13       30.23F WCI  -2
$$
MNZ065>067-074>077-082>085-091>093-060400-
   South Central Minnesota

CITY           SKY/WX    TMP DP  RH WIND       PRES   REMARKS
MANKATO        FAIR      12   1  62 S12G17    30.33F WCI  -2
NEW ULM        CLEAR     12   3  67 S12       30.31F WCI  -2
ST JAMES       CLEAR     16   7  67 SE12      30.32F WCI   3
FAIRMONT       CLEAR     12   5  73 S14       30.31F WCI  -3
GLENCOE        CLEAR     13   6  71 S6        30.31F WCI   4
FARIBAULT      CLEAR      9   1  72 S9        30.36F WCI  -5
OWATONNA       CLEAR      9   1  72 S15       30.36F WCI  -8
WASECA         CLEAR     12   5  73 S14       30.37F WCI  -3
ALBERT LEA     PTCLDY     9   1  72 S9        30.37F WCI  -5
$$
MNZ078>079-086>088-094>096-060400-
   Southeast Minnesota

CITY           SKY/WX    TMP DP  RH WIND       PRES   REMARKS
ROCHESTER      PTCLDY     1  -5  75 S13       30.38F WCI -17
RED WING       PTCLDY     9  -2  61 S7        30.41S WCI  -3
STANTON        CLEAR      9   1  70 S10       30.36F WCI  -5
DODGE CENTER   PTCLDY     5   0  78 S13       30.36F WCI -12
WINONA         PTCLDY     9   0  66 SE3       30.47F
AUSTIN         PTCLDY     3  -2  78 S10       30.39F WCI -12
PRESTON        PTCLDY     1  -5  75 S9        30.41S WCI -14
$$
ABBREVIATIONS USED IN REMARKS
   TC - TEMPERATURES IN CELSIUS
  WCI - WIND CHILL INDEX
   HX - HEAT INDEX
  VSB - VISIBILITY
$$



USA.gov is the U.S. government's official web portal to all federal, state and local government web resources and services.